| time (UTC) | temp F | wind direction | speed knots | gust knots | rain 1hr in | rain 24hr in | rain mn in | humidity % | barometer mb |
| 20260507145114 | 88 | 12 | 2.6 | 14.8 | 0.00 | 0.00 | 0.00 | 53 | 1003.4 |
| 20260507144613 | 88 | 351 | 1.7 | 10.4 | 0.00 | 0.00 | 0.00 | 53 | 1003.6 |
| 20260507144344 | 88 | 351 | 1.7 | 10.4 | 0.00 | 0.00 | 0.00 | 53 | 1003.7 |
| 20260507143612 | 88 | 2 | 1.7 | 8.7 | 0.00 | 0.00 | 0.00 | 54 | 1003.6 |
| 20260507143112 | 88 | 325 | 2.6 | 11.3 | 0.00 | 0.00 | 0.00 | 54 | 1004.0 |
| 20260507142619 | 87 | 333 | 1.7 | 7.8 | 0.00 | 0.00 | 0.00 | 55 | 1004.3 |
| 20260507142612 | 87 | 18 | 2.6 | 11.3 | 0.00 | 0.00 | 0.00 | 53 | 1004.0 |
| 20260507141839 | 87 | 350 | 1.7 | 10.4 | 0.00 | 0.00 | 0.00 | 55 | 1004.6 |
| 20260507141340 | 87 | 310 | 2.6 | 15.6 | 0.00 | 0.00 | 0.00 | 55 | 1004.6 |
| 20260507140839 | 87 | 18 | 1.7 | 15.6 | 0.00 | 0.00 | 0.00 | 56 | 1004.9 |
| 20260507140108 | 87 | 302 | 1.7 | 11.3 | 0.00 | 0.00 | 0.00 | 56 | 1004.9 |
| 20260507135610 | 86 | 338 | 1.7 | 9.6 | 0.00 | 0.00 | 0.00 | 56 | 1005.2 |
| 20260507135108 | 86 | 340 | 2.6 | 10.4 | 0.00 | 0.00 | 0.00 | 57 | 1005.2 |
| 20260507134108 | 85 | 316 | 2.6 | 10.4 | 0.00 | 0.00 | 0.00 | 57 | 1005.6 |
| 20260507133608 | 85 | 327 | 2.6 | 10.4 | 0.00 | 0.00 | 0.00 | 58 | 1005.7 |
| 20260507133108 | 85 | 349 | 1.7 | 18.2 | 0.00 | 0.00 | 0.00 | 59 | 1006.0 |
| 20260507132608 | 84 | 337 | 1.7 | 18.2 | 0.00 | 0.00 | 0.00 | 60 | 1006.0 |
| 20260507132338 | 84 | 348 | 1.7 | 7.0 | 0.00 | 0.00 | 0.00 | 60 | 1006.1 |
| 20260507131606 | 84 | 355 | 0.9 | 7.0 | 0.00 | 0.00 | 0.00 | 60 | 1006.1 |
| 20260507131338 | 84 | 343 | 1.7 | 7.0 | 0.00 | 0.00 | 0.00 | 60 | 1006.2 |
| 20260507130606 | 84 | 31 | 2.6 | 7.8 | 0.00 | 0.00 | 0.00 | 61 | 1006.3 |
| 20260507130106 | 83 | 20 | 1.7 | 7.8 | 0.00 | 0.00 | 0.00 | 62 | 1006.5 |
| 20260507125547 | 83 | 28 | 0.9 | 6.1 | 0.00 | 0.00 | 0.00 | 63 | 1006.5 |
| 20260507125046 | 82 | 33 | 1.7 | 10.4 | 0.00 | 0.00 | 0.00 | 63 | 1006.6 |
| 20260507124547 | 82 | 342 | 0.9 | 10.4 | 0.00 | 0.00 | 0.00 | 63 | 1006.7 |
| 20260507124047 | 82 | 7 | 1.7 | 9.6 | 0.00 | 0.00 | 0.00 | 63 | 1006.8 |
| 20260507123538 | 82 | 338 | 1.7 | 9.6 | 0.00 | 0.00 | 0.00 | 63 | 1007.0 |
| 20260507123033 | 82 | 355 | 0.9 | 7.8 | 0.00 | 0.00 | 0.00 | 63 | 1007.0 |
| 20260507122540 | 82 | 351 | 0.9 | 10.4 | 0.00 | 0.00 | 0.00 | 64 | 1007.1 |
| 20260507122533 | 82 | 343 | 1.7 | 10.4 | 0.00 | 0.00 | 0.00 | 64 | 1007.0 |
| 20260507121530 | 82 | 346 | 0.0 | 2.6 | 0.00 | 0.00 | 0.00 | 64 | 1007.0 |
| 20260507121028 | 82 | 28 | 0.0 | 2.6 | 0.00 | 0.00 | 0.00 | 65 | 1006.9 |
| 20260507120517 | 82 | 9 | 0.0 | 1.7 | 0.00 | 0.00 | 0.00 | 66 | 1006.9 |
| 20260507120017 | 81 | 9 | 0.0 | 1.7 | 0.00 | 0.00 | 0.00 | 65 | 1006.9 |
| 20260507115514 | 81 | 52 | 0.0 | 1.7 | 0.00 | 0.00 | 0.00 | 65 | 1007.1 |
| 20260507115010 | 81 | 52 | 0.0 | 1.7 | 0.00 | 0.00 | 0.00 | 66 | 1007.0 |
| 20260507114509 | 81 | 52 | 0.0 | 1.7 | 0.00 | 0.00 | 0.00 | 66 | 1007.0 |
| 20260507114002 | 81 | 52 | 0.0 | 4.3 | 0.00 | 0.00 | 0.00 | 66 | 1007.1 |
| 20260507112943 | 81 | 42 | 0.0 | 1.7 | 0.00 | 0.00 | 0.00 | 66 | 1007.0 |
| 20260507112438 | 81 | 42 | 0.0 | 1.7 | 0.00 | 0.00 | 0.00 | 66 | 1006.9 |
| 20260507111934 | 81 | 233 | 0.0 | 0.9 | 0.00 | 0.00 | 0.00 | 66 | 1006.8 |
| 20260507111654 | 81 | 124 | 0.9 | 6.1 | 0.00 | 0.00 | 0.00 | 65 | 1006.9 |
| 20260507110919 | 81 | 353 | 0.9 | 7.0 | 0.00 | 0.00 | 0.00 | 65 | 1006.7 |
| 20260507110409 | 81 | 58 | 0.9 | 7.0 | 0.00 | 0.00 | 0.00 | 65 | 1006.5 |
| 20260507105902 | 81 | 37 | 1.7 | 8.7 | 0.00 | 0.00 | 0.00 | 65 | 1006.4 |
| 20260507105404 | 81 | 33 | 1.7 | 8.7 | 0.00 | 0.00 | 0.00 | 65 | 1006.4 |
| 20260507104857 | 81 | 56 | 0.9 | 4.3 | 0.00 | 0.00 | 0.00 | 67 | 1006.2 |
| 20260507104115 | 80 | 326 | 0.9 | 3.5 | 0.00 | 0.00 | 0.00 | 67 | 1006.1 |
| 20260507103608 | 80 | 20 | 0.9 | 7.8 | 0.00 | 0.00 | 0.00 | 67 | 1006.3 |
| 20260507102824 | 80 | 356 | 0.9 | 7.8 | 0.00 | 0.00 | 0.00 | 68 | 1006.3 |
| 20260507101814 | 80 | 327 | 0.9 | 7.0 | 0.00 | 0.00 | 0.00 | 68 | 1006.4 |
| 20260507101312 | 80 | 3 | 1.7 | 10.4 | 0.00 | 0.00 | 0.00 | 68 | 1006.3 |
| 20260507100810 | 80 | 49 | 1.7 | 10.4 | 0.00 | 0.00 | 0.00 | 68 | 1006.3 |
| 20260507100542 | 80 | 15 | 0.9 | 6.1 | 0.00 | 0.00 | 0.00 | 68 | 1006.4 |
| 20260507100042 | 80 | 2 | 0.9 | 6.1 | 0.00 | 0.00 | 0.00 | 68 | 1006.3 |
| 20260507095305 | 80 | 345 | 0.9 | 7.0 | 0.00 | 0.00 | 0.00 | 68 | 1006.3 |
| 20260507094752 | 80 | 303 | 0.9 | 7.0 | 0.00 | 0.00 | 0.00 | 68 | 1006.4 |
| 20260507094243 | 80 | 320 | 0.9 | 6.1 | 0.00 | 0.00 | 0.00 | 68 | 1006.5 |
| 20260507094004 | 80 | 324 | 0.9 | 6.1 | 0.00 | 0.00 | 0.00 | 68 | 1006.5 |
| 20260507093222 | 80 | 333 | 0.9 | 6.1 | 0.00 | 0.00 | 0.00 | 68 | 1006.6 |
| 20260507092700 | 80 | 320 | 0.0 | 3.5 | 0.00 | 0.00 | 0.00 | 68 | 1006.5 |
| 20260507092150 | 80 | 335 | 0.0 | 5.2 | 0.00 | 0.00 | 0.00 | 68 | 1006.5 |
| 20260507091640 | 80 | 333 | 0.9 | 5.2 | 0.00 | 0.00 | 0.00 | 68 | 1006.5 |
| 20260507091131 | 80 | 35 | 0.0 | 3.5 | 0.00 | 0.00 | 0.00 | 68 | 1006.4 |
| 20260507090852 | 79 | 356 | 0.0 | 3.5 | 0.00 | 0.00 | 0.00 | 69 | 1006.4 |
| 20260507090111 | 79 | 25 | 0.9 | 3.5 | 0.00 | 0.00 | 0.00 | 69 | 1006.3 |
| 20260507085552 | 79 | 25 | 0.9 | 3.5 | 0.00 | 0.00 | 0.00 | 69 | 1006.3 |
| 20260507085313 | 79 | 349 | 0.0 | 4.3 | 0.00 | 0.00 | 0.00 | 69 | 1006.2 |
| 20260507084532 | 79 | 345 | 0.9 | 6.1 | 0.00 | 0.00 | 0.00 | 69 | 1006.2 |
| 20260507084022 | 79 | 326 | 0.9 | 6.1 | 0.00 | 0.00 | 0.00 | 70 | 1006.2 |
| 20260507083512 | 79 | 347 | 0.0 | 4.3 | 0.00 | 0.00 | 0.00 | 70 | 1006.3 |
| 20260507083003 | 79 | 335 | 0.0 | 0.0 | 0.00 | 0.00 | 0.00 | 70 | 1006.4 |
| 20260507082451 | 79 | 6 | 0.0 | 0.0 | 0.00 | 0.00 | 0.00 | 70 | 1006.4 |
| 20260507081937 | 79 | 16 | 0.0 | 0.0 | 0.00 | 0.00 | 0.00 | 70 | 1006.4 |
| 20260507081427 | 79 | 16 | 0.0 | 0.0 | 0.00 | 0.00 | 0.00 | 70 | 1006.3 |
| 20260507080916 | 78 | 16 | 0.0 | 0.0 | 0.00 | 0.00 | 0.00 | 71 | 1006.3 |
| 20260507080905 | 78 | 24 | 0.0 | 0.0 | 0.00 | 0.00 | 0.00 | 71 | 1006.3 |
| 20260507075850 | 78 | 23 | 0.0 | 0.0 | 0.00 | 0.00 | 0.00 | 71 | 1006.5 |
| 20260507075340 | 78 | 24 | 0.0 | 2.6 | 0.00 | 0.00 | 0.00 | 72 | 1006.5 |
| 20260507074830 | 78 | 24 | 0.0 | 2.6 | 0.00 | 0.00 | 0.00 | 72 | 1006.5 |
| 20260507074322 | 78 | 38 | 0.9 | 2.6 | 0.00 | 0.00 | 0.00 | 72 | 1006.5 |
| 20260507073816 | 78 | 62 | 0.9 | 5.2 | 0.00 | 0.00 | 0.00 | 73 | 1006.6 |
| 20260507073314 | 77 | 33 | 0.0 | 5.2 | 0.00 | 0.00 | 0.00 | 74 | 1006.7 |
| 20260507072814 | 77 | 57 | 0.0 | 2.6 | 0.00 | 0.00 | 0.00 | 74 | 1006.8 |
| 20260507072313 | 77 | 57 | 0.0 | 3.5 | 0.00 | 0.00 | 0.00 | 75 | 1006.9 |
| 20260507071313 | 76 | 71 | 0.0 | 0.0 | 0.00 | 0.00 | 0.00 | 76 | 1007.0 |
| 20260507070812 | 76 | 235 | 0.0 | 0.0 | 0.00 | 0.00 | 0.00 | 77 | 1007.1 |
| 20260507070311 | 76 | 242 | 0.0 | 0.0 | 0.00 | 0.00 | 0.00 | 78 | 1007.1 |
| 20260507065811 | 76 | 246 | 0.0 | 0.0 | 0.00 | 0.00 | 0.00 | 78 | 1007.1 |
| 20260507065543 | 76 | 254 | 0.0 | 0.0 | 0.00 | 0.00 | 0.00 | 78 | 1007.3 |
| 20260507064812 | 76 | 254 | 0.0 | 0.0 | 0.00 | 0.00 | 0.00 | 78 | 1007.5 |
| 20260507064311 | 76 | 185 | 0.0 | 0.0 | 0.00 | 0.00 | 0.00 | 77 | 1007.5 |
| 20260507063812 | 76 | 185 | 0.0 | 0.0 | 0.00 | 0.00 | 0.00 | 77 | 1007.5 |
| 20260507063309 | 76 | 185 | 0.0 | 0.0 | 0.00 | 0.00 | 0.00 | 77 | 1007.6 |
| 20260507063038 | 77 | 185 | 0.0 | 0.0 | 0.00 | 0.00 | 0.00 | 76 | 1007.6 |
| 20260507062306 | 77 | 185 | 0.0 | 0.0 | 0.00 | 0.00 | 0.00 | 75 | 1007.8 |
| 20260507061804 | 78 | 166 | 0.0 | 0.0 | 0.00 | 0.00 | 0.00 | 74 | 1007.8 |
| 20260507061301 | 78 | 83 | 0.0 | 0.0 | 0.00 | 0.00 | 0.00 | 73 | 1007.7 |
| 20260507060801 | 78 | 68 | 0.0 | 1.7 | 0.00 | 0.00 | 0.00 | 73 | 1007.9 |
| 20260507060256 | 78 | 68 | 0.0 | 1.7 | 0.00 | 0.00 | 0.00 | 72 | 1007.9 |
| 20260507055754 | 79 | 68 | 0.9 | 3.5 | 0.00 | 0.00 | 0.00 | 72 | 1008.0 |
| 20260507055254 | 79 | 68 | 0.9 | 4.3 | 0.00 | 0.00 | 0.00 | 72 | 1008.1 |
| 20260507054752 | 79 | 70 | 1.7 | 4.3 | 0.00 | 0.00 | 0.00 | 72 | 1008.1 |
| 20260507054235 | 79 | 78 | 3.5 | 7.8 | 0.00 | 0.00 | 0.00 | 72 | 1008.2 |
| 20260507053736 | 78 | 68 | 2.6 | 7.8 | 0.00 | 0.00 | 0.00 | 73 | 1008.2 |
| 20260507053236 | 77 | 68 | 1.7 | 6.1 | 0.00 | 0.00 | 0.00 | 76 | 1008.4 |
| 20260507052742 | 75 | 47 | 1.7 | 9.6 | 0.00 | 0.00 | 0.00 | 81 | 1008.7 |
| 20260507052735 | 76 | 58 | 2.6 | 7.0 | 0.00 | 0.00 | 0.00 | 78 | 1008.5 |
| 20260507051735 | 74 | 81 | 0.9 | 9.6 | 0.00 | 0.00 | 0.00 | 83 | 1008.7 |
| 20260507051235 | 74 | 67 | 0.0 | 0.0 | 0.00 | 0.00 | 0.00 | 84 | 1008.8 |
| 20260507050736 | 74 | 67 | 0.0 | 0.0 | 0.00 | 0.00 | 0.00 | 84 | 1009.0 |
| 20260507050235 | 74 | 67 | 0.0 | 7.0 | 0.00 | 0.00 | 0.00 | 85 | 1009.1 |
| 20260507045735 | 73 | 66 | 0.0 | 7.0 | 0.00 | 0.00 | 0.00 | 85 | 1009.1 |
| 20260507045233 | 73 | 112 | 0.0 | 0.0 | 0.00 | 0.00 | 0.00 | 86 | 1009.1 |
| 20260507044733 | 73 | 114 | 0.0 | 0.0 | 0.00 | 0.00 | 0.00 | 87 | 1009.2 |
| 20260507044231 | 73 | 162 | 0.0 | 0.0 | 0.00 | 0.00 | 0.00 | 88 | 1009.3 |
| 20260507043729 | 73 | 164 | 0.0 | 0.0 | 0.00 | 0.00 | 0.00 | 88 | 1009.4 |
| 20260507043230 | 73 | 164 | 0.0 | 0.0 | 0.00 | 0.00 | 0.00 | 88 | 1009.4 |
| 20260507042718 | 73 | 164 | 0.0 | 0.0 | 0.00 | 0.00 | 0.00 | 88 | 1009.4 |
| 20260507042218 | 73 | 164 | 0.0 | 0.0 | 0.00 | 0.00 | 0.00 | 89 | 1009.6 |
| 20260507041718 | 73 | 164 | 0.0 | 0.0 | 0.00 | 0.00 | 0.00 | 89 | 1009.6 |
| 20260507041218 | 73 | 164 | 0.0 | 0.0 | 0.00 | 0.00 | 0.00 | 89 | 1009.8 |
| 20260507040947 | 72 | 164 | 0.0 | 0.0 | 0.00 | 0.00 | 0.00 | 89 | 1009.9 |
| 20260507040216 | 72 | 164 | 0.0 | 0.0 | 0.00 | 0.00 | 0.00 | 89 | 1009.9 |
| 20260507035716 | 72 | 164 | 0.0 | 0.0 | 0.00 | 0.00 | 0.00 | 89 | 1010.1 |
| 20260507035215 | 72 | 70 | 0.0 | 0.0 | 0.00 | 0.00 | 0.00 | 89 | 1010.0 |
| 20260507034945 | 72 | 69 | 0.0 | 0.0 | 0.00 | 0.00 | 0.00 | 89 | 1010.0 |
| 20260507033712 | 72 | 69 | 0.0 | 0.0 | 0.00 | 0.00 | 0.00 | 88 | 1010.1 |
| 20260507033210 | 72 | 69 | 0.0 | 0.0 | 0.00 | 0.00 | 0.00 | 88 | 1010.2 |
| 20260507032708 | 72 | 69 | 0.0 | 0.0 | 0.00 | 0.00 | 0.00 | 88 | 1010.3 |
| 20260507032206 | 73 | 69 | 0.0 | 0.0 | 0.00 | 0.00 | 0.00 | 88 | 1010.3 |
| 20260507031705 | 73 | 69 | 0.0 | 0.0 | 0.00 | 0.00 | 0.00 | 88 | 1010.3 |
| 20260507031203 | 73 | 69 | 0.0 | 0.0 | 0.00 | 0.00 | 0.00 | 88 | 1010.4 |
| 20260507030714 | 73 | 69 | 0.0 | 0.0 | 0.00 | 0.00 | 0.00 | 88 | 1010.5 |
| 20260507030212 | 73 | 69 | 0.0 | 0.0 | 0.00 | 0.00 | 0.00 | 88 | 1010.6 |
| 20260507025704 | 73 | 69 | 0.0 | 0.0 | 0.00 | 0.00 | 0.00 | 87 | 1010.7 |
| 20260507025201 | 73 | 69 | 0.0 | 0.0 | 0.00 | 0.00 | 0.00 | 87 | 1010.7 |
| 20260507024706 | 74 | 69 | 0.0 | 0.0 | 0.00 | 0.00 | 0.00 | 88 | 1010.7 |
| 20260507024659 | 74 | 69 | 0.0 | 0.0 | 0.00 | 0.00 | 0.00 | 88 | 1010.7 |
| 20260507023659 | 74 | 69 | 0.0 | 0.0 | 0.00 | 0.00 | 0.00 | 87 | 1010.8 |
| 20260507023157 | 74 | 69 | 0.0 | 0.0 | 0.00 | 0.00 | 0.00 | 87 | 1010.9 |
| 20260507022655 | 74 | 69 | 0.0 | 0.0 | 0.00 | 0.00 | 0.00 | 87 | 1010.9 |
| 20260507021652 | 74 | 69 | 0.0 | 0.0 | 0.00 | 0.00 | 0.00 | 86 | 1011.0 |
| 20260507021153 | 74 | 69 | 0.0 | 0.0 | 0.00 | 0.00 | 0.00 | 86 | 1011.0 |
| 20260507020653 | 74 | 69 | 0.0 | 0.0 | 0.00 | 0.00 | 0.00 | 85 | 1011.1 |
| 20260507020421 | 74 | 69 | 0.0 | 0.0 | 0.00 | 0.00 | 0.00 | 85 | 1011.1 |
| 20260507015648 | 75 | 69 | 0.0 | 0.0 | 0.00 | 0.00 | 0.00 | 85 | 1011.2 |
| 20260507015145 | 75 | 69 | 0.0 | 0.0 | 0.00 | 0.00 | 0.00 | 85 | 1011.1 |
| 20260507014145 | 75 | 69 | 0.0 | 0.0 | 0.00 | 0.00 | 0.00 | 84 | 1011.0 |
| 20260507013642 | 76 | 69 | 0.0 | 0.0 | 0.00 | 0.00 | 0.00 | 84 | 1011.0 |
| 20260507013414 | 76 | 69 | 0.0 | 0.0 | 0.00 | 0.00 | 0.00 | 84 | 1011.1 |
| 20260507012641 | 76 | 69 | 0.0 | 0.0 | 0.00 | 0.00 | 0.00 | 83 | 1011.2 |
| 20260507012139 | 76 | 69 | 0.0 | 0.0 | 0.00 | 0.00 | 0.00 | 83 | 1011.2 |
| 20260507011634 | 76 | 69 | 0.0 | 0.0 | 0.00 | 0.00 | 0.00 | 83 | 1011.3 |
| 20260507011140 | 77 | 69 | 0.0 | 0.0 | 0.00 | 0.00 | 0.00 | 83 | 1011.5 |
| 20260507011133 | 76 | 69 | 0.0 | 0.0 | 0.00 | 0.00 | 0.00 | 83 | 1011.4 |
| 20260507010132 | 77 | 69 | 0.0 | 0.0 | 0.00 | 0.00 | 0.00 | 82 | 1011.3 |
| 20260507005633 | 77 | 69 | 0.0 | 0.0 | 0.00 | 0.00 | 0.00 | 81 | 1011.3 |
| 20260507004633 | 78 | 69 | 0.0 | 0.0 | 0.00 | 0.00 | 0.00 | 80 | 1011.3 |
| 20260507004131 | 78 | 69 | 0.0 | 0.0 | 0.00 | 0.00 | 0.00 | 80 | 1011.3 |
| 20260507003630 | 78 | 69 | 0.0 | 0.0 | 0.00 | 0.00 | 0.00 | 79 | 1011.3 |
| 20260507003128 | 78 | 69 | 0.0 | 0.0 | 0.00 | 0.00 | 0.00 | 79 | 1011.3 |
| 20260507002628 | 78 | 69 | 0.0 | 0.0 | 0.00 | 0.00 | 0.00 | 78 | 1011.3 |
| 20260507002358 | 78 | 69 | 0.0 | 0.0 | 0.00 | 0.00 | 0.00 | 78 | 1011.3 |
| 20260507001623 | 79 | 69 | 0.0 | 0.0 | 0.00 | 0.00 | 0.00 | 78 | 1011.3 |
| 20260507001118 | 79 | 69 | 0.0 | 0.0 | 0.00 | 0.00 | 0.00 | 78 | 1011.3 |
| 20260507000613 | 79 | 69 | 0.0 | 0.0 | 0.00 | 0.00 | 0.00 | 77 | 1011.4 |
| 20260506235609 | 79 | 69 | 0.0 | 0.0 | 0.00 | 0.00 | 0.00 | 76 | 1011.4 |
| 20260506235115 | 79 | 67 | 0.0 | 0.0 | 0.00 | 0.00 | 0.00 | 75 | 1011.4 |
| 20260506235109 | 79 | 69 | 0.0 | 0.0 | 0.00 | 0.00 | 0.00 | 75 | 1011.4 |
| 20260506234105 | 80 | 67 | 0.0 | 0.0 | 0.00 | 0.00 | 0.00 | 75 | 1011.4 |
| 20260506233835 | 80 | 67 | 0.0 | 0.0 | 0.00 | 0.00 | 0.00 | 75 | 1011.5 |
| 20260506233054 | 80 | 68 | 0.0 | 4.3 | 0.00 | 0.00 | 0.00 | 74 | 1011.5 |
| 20260506232549 | 80 | 67 | 0.9 | 4.3 | 0.00 | 0.00 | 0.00 | 74 | 1011.4 |
| 20260506232042 | 80 | 80 | 0.9 | 4.3 | 0.00 | 0.00 | 0.00 | 74 | 1011.5 |
| 20260506231525 | 80 | 77 | 0.9 | 4.3 | 0.00 | 0.00 | 0.00 | 74 | 1011.4 |
| 20260506231021 | 80 | 74 | 0.9 | 4.3 | 0.00 | 0.00 | 0.00 | 75 | 1011.4 |
| 20260506230518 | 80 | 85 | 0.9 | 4.3 | 0.00 | 0.00 | 0.00 | 75 | 1011.3 |
| 20260506230016 | 80 | 80 | 1.7 | 5.2 | 0.00 | 0.00 | 0.00 | 75 | 1011.3 |
| 20260506225513 | 80 | 67 | 0.9 | 5.2 | 0.00 | 0.00 | 0.00 | 75 | 1011.2 |
| 20260506225012 | 80 | 80 | 0.9 | 4.3 | 0.00 | 0.00 | 0.00 | 75 | 1011.3 |
| 20260506224506 | 80 | 63 | 0.9 | 5.2 | 0.00 | 0.00 | 0.00 | 75 | 1011.3 |
| 20260506223954 | 80 | 70 | 0.9 | 5.2 | 0.00 | 0.00 | 0.00 | 75 | 1011.3 |
| 20260506222936 | 80 | 53 | 1.7 | 5.2 | 0.00 | 0.00 | 0.00 | 75 | 1011.2 |
| 20260506222426 | 80 | 54 | 1.7 | 5.2 | 0.00 | 0.00 | 0.00 | 75 | 1011.1 |
| 20260506221920 | 81 | 71 | 0.9 | 4.3 | 0.00 | 0.00 | 0.00 | 75 | 1011.2 |
| 20260506221907 | 81 | 61 | 0.9 | 4.3 | 0.00 | 0.00 | 0.00 | 75 | 1011.1 |
| 20260506220854 | 81 | 78 | 0.9 | 4.3 | 0.00 | 0.00 | 0.00 | 75 | 1011.1 |
| 20260506215829 | 81 | 74 | 0.0 | 5.2 | 0.00 | 0.00 | 0.00 | 76 | 1011.1 |
| 20260506215318 | 81 | 79 | 0.0 | 2.6 | 0.00 | 0.00 | 0.00 | 76 | 1011.1 |
| 20260506214809 | 81 | 69 | 0.9 | 4.3 | 0.00 | 0.00 | 0.00 | 76 | 1011.1 |
| 20260506214305 | 82 | 68 | 0.9 | 4.3 | 0.00 | 0.00 | 0.00 | 76 | 1011.0 |
| 20260506213753 | 82 | 69 | 0.0 | 4.3 | 0.00 | 0.00 | 0.00 | 75 | 1011.0 |
| 20260506213243 | 83 | 58 | 0.0 | 2.6 | 0.00 | 0.00 | 0.00 | 75 | 1011.1 |
| 20260506212732 | 83 | 62 | 0.0 | 2.6 | 0.00 | 0.00 | 0.00 | 74 | 1011.1 |
| 20260506212224 | 83 | 62 | 0.0 | 4.3 | 0.00 | 0.00 | 0.00 | 73 | 1011.0 |
| 20260506211713 | 83 | 58 | 0.9 | 4.3 | 0.00 | 0.00 | 0.00 | 73 | 1011.0 |
| 20260506211203 | 84 | 72 | 0.9 | 3.5 | 0.00 | 0.00 | 0.00 | 72 | 1011.0 |
| 20260506210651 | 84 | 73 | 0.9 | 3.5 | 0.00 | 0.00 | 0.00 | 71 | 1011.0 |
| 20260506210142 | 85 | 69 | 0.9 | 3.5 | 0.00 | 0.00 | 0.00 | 70 | 1011.1 |
| 20260506205632 | 85 | 72 | 0.0 | 3.5 | 0.00 | 0.00 | 0.00 | 69 | 1011.1 |
| 20260506205120 | 86 | 75 | 0.0 | 3.5 | 0.00 | 0.00 | 0.00 | 67 | 1011.1 |
| 20260506204611 | 87 | 62 | 0.0 | 2.6 | 0.00 | 0.00 | 0.00 | 66 | 1011.1 |
| 20260506204101 | 88 | 62 | 0.0 | 0.0 | 0.00 | 0.00 | 0.00 | 64 | 1011.1 |
| 20260506203544 | 88 | 62 | 0.0 | 0.0 | 0.00 | 0.00 | 0.00 | 63 | 1011.1 |
| 20260506203030 | 89 | 60 | 0.0 | 2.6 | 0.00 | 0.00 | 0.00 | 62 | 1011.1 |
| 20260506202515 | 89 | 62 | 0.0 | 2.6 | 0.00 | 0.00 | 0.00 | 60 | 1011.1 |
| 20260506202006 | 90 | 37 | 0.0 | 0.0 | 0.00 | 0.00 | 0.00 | 58 | 1011.1 |
| 20260506201453 | 90 | 37 | 0.0 | 0.0 | 0.00 | 0.00 | 0.00 | 57 | 1011.2 |
| 20260506200942 | 91 | 37 | 0.0 | 0.0 | 0.00 | 0.00 | 0.00 | 57 | 1011.2 |
| 20260506200433 | 91 | 37 | 0.0 | 0.0 | 0.00 | 0.00 | 0.00 | 56 | 1011.3 |
| 20260506195923 | 91 | 35 | 0.0 | 0.9 | 0.00 | 0.00 | 0.00 | 55 | 1011.4 |
| 20260506195412 | 92 | 35 | 0.0 | 0.9 | 0.00 | 0.00 | 0.00 | 55 | 1011.4 |
| 20260506194856 | 92 | 4 | 0.0 | 0.9 | 0.00 | 0.00 | 0.00 | 55 | 1011.4 |
| 20260506194617 | 92 | 12 | 0.0 | 0.0 | 0.00 | 0.00 | 0.00 | 55 | 1011.4 |
| 20260506193832 | 92 | 12 | 0.0 | 0.9 | 0.00 | 0.00 | 0.00 | 55 | 1011.5 |
| 20260506193103 | 92 | 14 | 0.0 | 0.9 | 0.00 | 0.00 | 0.00 | 55 | 1011.5 |
| 20260506192601 | 92 | 14 | 0.0 | 0.9 | 0.00 | 0.00 | 0.00 | 55 | 1011.5 |
| 20260506191827 | 92 | 353 | 0.0 | 0.9 | 0.00 | 0.00 | 0.00 | 55 | 1011.5 |
| 20260506191323 | 92 | 358 | 0.0 | 0.9 | 0.00 | 0.00 | 0.00 | 56 | 1011.5 |
| 20260506190324 | 92 | 14 | 0.0 | 0.9 | 0.00 | 0.00 | 0.00 | 56 | 1011.5 |
| 20260506185824 | 92 | 338 | 0.0 | 0.9 | 0.00 | 0.00 | 0.00 | 56 | 1011.6 |
| 20260506185322 | 91 | 339 | 0.0 | 1.7 | 0.00 | 0.00 | 0.00 | 56 | 1011.6 |
| 20260506184818 | 91 | 13 | 0.0 | 1.7 | 0.00 | 0.00 | 0.00 | 56 | 1011.6 |
| 20260506184318 | 91 | 37 | 0.0 | 3.5 | 0.00 | 0.00 | 0.00 | 56 | 1011.5 |
| 20260506184048 | 91 | 341 | 0.0 | 3.5 | 0.00 | 0.00 | 0.00 | 56 | 1011.5 |
| 20260506183317 | 91 | 31 | 0.0 | 2.6 | 0.00 | 0.00 | 0.00 | 56 | 1011.6 |
| 20260506182818 | 91 | 342 | 0.9 | 4.3 | 0.00 | 0.00 | 0.00 | 55 | 1011.7 |
| 20260506182316 | 92 | 10 | 0.9 | 6.1 | 0.00 | 0.00 | 0.00 | 55 | 1011.7 |
| 20260506182046 | 92 | 339 | 0.9 | 6.1 | 0.00 | 0.00 | 0.00 | 55 | 1011.8 |
| 20260506181315 | 92 | 347 | 0.9 | 4.3 | 0.00 | 0.00 | 0.00 | 55 | 1011.9 |
| 20260506180814 | 92 | 339 | 0.9 | 4.3 | 0.00 | 0.00 | 0.00 | 56 | 1011.8 |
| 20260506180312 | 92 | 341 | 0.9 | 6.1 | 0.00 | 0.00 | 0.00 | 55 | 1011.9 |
| 20260506175802 | 92 | 335 | 0.9 | 6.1 | 0.00 | 0.00 | 0.00 | 55 | 1012.0 |
| 20260506175300 | 92 | 18 | 0.0 | 3.5 | 0.00 | 0.00 | 0.00 | 55 | 1012.0 |
| 20260506174759 | 92 | 353 | 0.9 | 7.8 | 0.00 | 0.00 | 0.00 | 56 | 1012.1 |
| 20260506174259 | 92 | 2 | 0.9 | 7.8 | 0.00 | 0.00 | 0.00 | 55 | 1012.1 |
| 20260506173800 | 92 | 27 | 1.7 | 9.6 | 0.00 | 0.00 | 0.00 | 56 | 1012.2 |
| 20260506173257 | 92 | 303 | 2.6 | 9.6 | 0.00 | 0.00 | 0.00 | 56 | 1012.3 |
| 20260506172300 | 92 | 314 | 1.7 | 8.7 | 0.00 | 0.00 | 0.00 | 56 | 1012.5 |
| 20260506172253 | 92 | 341 | 1.7 | 8.7 | 0.00 | 0.00 | 0.00 | 56 | 1012.5 |
| 20260506171519 | 92 | 299 | 0.9 | 7.8 | 0.00 | 0.00 | 0.00 | 57 | 1012.5 |
| 20260506170747 | 92 | 348 | 0.9 | 7.8 | 0.00 | 0.00 | 0.00 | 57 | 1012.6 |
| 20260506170510 | 92 | 310 | 0.9 | 8.7 | 0.00 | 0.00 | 0.00 | 56 | 1012.7 |
| 20260506170008 | 91 | 8 | 0.9 | 8.7 | 0.00 | 0.00 | 0.00 | 57 | 1012.7 |
| 20260506165237 | 91 | 350 | 0.9 | 7.0 | 0.00 | 0.00 | 0.00 | 57 | 1012.8 |
| 20260506164737 | 91 | 337 | 0.9 | 7.0 | 0.00 | 0.00 | 0.00 | 58 | 1012.9 |
| 20260506164237 | 91 | 314 | 0.9 | 6.1 | 0.00 | 0.00 | 0.00 | 58 | 1013.0 |
| 20260506163734 | 90 | 331 | 0.9 | 6.1 | 0.00 | 0.00 | 0.00 | 59 | 1013.1 |
| 20260506163228 | 90 | 318 | 0.9 | 4.3 | 0.00 | 0.00 | 0.00 | 58 | 1013.2 |
| 20260506162729 | 90 | 333 | 0.9 | 6.1 | 0.00 | 0.00 | 0.00 | 59 | 1013.3 |
| 20260506162229 | 90 | 297 | 0.9 | 7.0 | 0.00 | 0.00 | 0.00 | 58 | 1013.3 |
| 20260506161736 | 90 | 335 | 0.9 | 6.1 | 0.00 | 0.00 | 0.00 | 59 | 1013.6 |
| 20260506161726 | 90 | 7 | 0.9 | 6.1 | 0.00 | 0.00 | 0.00 | 59 | 1013.5 |
| 20260506160719 | 90 | 344 | 0.0 | 5.2 | 0.00 | 0.00 | 0.00 | 58 | 1013.6 |
| 20260506160442 | 90 | 358 | 0.0 | 2.6 | 0.00 | 0.00 | 0.00 | 60 | 1013.9 |
| 20260506155708 | 90 | 37 | 0.9 | 4.3 | 0.00 | 0.00 | 0.00 | 61 | 1014.0 |
| 20260506155207 | 89 | 35 | 0.9 | 4.3 | 0.00 | 0.00 | 0.00 | 61 | 1014.0 |
| 20260506154709 | 88 | 283 | 1.7 | 6.1 | 0.00 | 0.00 | 0.00 | 61 | 1014.2 |
| 20260506154205 | 88 | 306 | 1.7 | 7.0 | 0.00 | 0.00 | 0.00 | 61 | 1014.2 |
| 20260506153945 | 88 | 299 | 1.7 | 8.7 | 0.00 | 0.00 | 0.00 | 61 | 1014.3 |
| 20260506153153 | 89 | 311 | 0.9 | 8.7 | 0.00 | 0.00 | 0.00 | 61 | 1014.5 |
| 20260506152702 | 89 | 311 | 1.7 | 7.0 | 0.00 | 0.00 | 0.00 | 61 | 1014.5 |
| 20260506152150 | 89 | 312 | 0.9 | 7.0 | 0.00 | 0.00 | 0.00 | 61 | 1014.6 |
| 20260506151646 | 88 | 329 | 0.0 | 2.6 | 0.00 | 0.00 | 0.00 | 62 | 1014.8 |
| 20260506151141 | 88 | 267 | 0.0 | 4.3 | 0.00 | 0.00 | 0.00 | 61 | 1014.9 |
| 20260506150640 | 88 | 295 | 0.0 | 5.2 | 0.00 | 0.00 | 0.00 | 62 | 1015.0 |
| 20260506150134 | 88 | 264 | 0.9 | 6.1 | 0.00 | 0.00 | 0.00 | 61 | 1015.0 |
| 20260506145630 | 88 | 359 | 1.7 | 7.0 | 0.00 | 0.00 | 0.00 | 63 | 1015.1 |